Kosmos-2411

operational
NORAD ID: 28508 Int'l Des: 2004-053 Owner: KVR/IACG Country: RU Constellation: GLONASS
MEOCIRCULAR

About Kosmos-2411

Description loading...

Live Position

Loading 3D Globe...

Upcoming Passes

Altitude History

Altitude vs Time

uPlot chart will show altitude changes over time

Two-Line Element Set

1 28508U 04053A 25306.10838638 .00000003 00000-0 00000-0 0 9991
2 28508 64.0636 68.2567 0006613 209.2346 147.7932 2.13103292162281
Epoch: Nov 2, 2025 • Age: 35 hours

Current Status

Altitude 19147.6 km
Velocity 3.95 km/s
Sub-Earth Point 24.34°N, 162.16°W
Launch Date Dec 26, 2004
Age 20.8 years
Type other

Technical Details

Classification Payload
Mass 1450.00 kg
Dry Mass 1200.00 kg
Total Mass 1450.00 kg
Length 4.00 m
Diameter 1.50 m
Span 7.80 m
Shape Cyl + Ant + 2 Pan
Manufacturer POL
Bus Type Uragan
Phase Status In Orbit
Owner/State KVR/IACG/RU

Large Constellations

Loading constellations...